Location: Petruro
(41.0333°N, 14.7833°E)
Time: 14:52:05
(UTC+00:00)

Helios 1A - Pass Details

Date: 20 June 2021
Orbit: 584 x 601 km, 98.2° (Epoch: 23 July)

Event Time Altitude Azimuth Distance (km) Brightness Sun altitude
Exits shadow 00:59:49 27° 272° (W) 1,154 4.2 -20.0°
Drops below altitude 10° 01:03:07 10° 323° (NW) 1,939 5.9 -19.7°
Sets 01:05:33 0° 335° (NNW) 2,849 7.0 -19.5°
